Regional Weather Roundup
Issued by NWS

Home | Current Version | Previous Version | Graphics & Text | Print | Product List | Glossary On
Versions: 1 2 3 4 5 6 7 8 9 10 11 12 13 14 15 16 17 18 19 20 21 22 23 24 25 26 27 28 29 30 31 32 33 34 35 36 37 38 39 40 41 42 43 44 45 46 47 48 49 50
000
ASUS43 KBIS 260902
RWRND

NORTH DAKOTA REGIONAL WEATHER ROUNDUP
NATIONAL WEATHER SERVICE BISMARCK ND
400 AM CDT FRI AUG 26 2016

NOTE: "FAIR" INDICATES FEW OR NO CLOUDS BELOW 12,000 FEET WITH NO
SIGNIFICANT WEATHER AND/OR OBSTRUCTIONS TO VISIBILITY.


NDZ001>003-009>011-017-261000-
NORTHWEST NORTH DAKOTA

CITY           SKY/WX    TMP DP  RH WIND       PRES   REMARKS
WILLISTON      FAIR      47  38  71 CALM      30.08S
MINOT          CLOUDY    58  46  64 SW9       30.05S
MINOT AFB      CLOUDY    55  46  71 SW7       30.03F
$$

NDZ018>021-031>035-040>046-261000-
SOUTHWEST NORTH DAKOTA

CITY           SKY/WX    TMP DP  RH WIND       PRES   REMARKS
BISMARCK       FAIR      45  43  93 CALM      30.14S
DICKINSON      FAIR      46  38  73 S6        30.12S
GARRISON         N/A     49  46  90 CALM      30.09S
HETTINGER ARPT FAIR      47  39  74 CALM      30.16F
$$

NDZ004>008-012>016-024-026-027-054-261000-
NORTHEAST NORTH DAKOTA

CITY           SKY/WX    TMP DP  RH WIND       PRES   REMARKS
GRAND FORKS    FAIR      48  45  89 SW7       30.06S
GRND FRKS AFB  FAIR      50  48  92 W6        30.06S
DEVILS LAKE    FAIR      57  52  83 SW9       30.09R
$$

NDZ022-023-025-028>030-036>039-047>053-261000-
SOUTHEAST NORTH DAKOTA

CITY           SKY/WX    TMP DP  RH WIND       PRES   REMARKS
FARGO          FAIR      54  49  83 SW9       30.10S
JAMESTOWN      FAIR      52  48  86 W7        30.11F
$$





USA.gov is the U.S. government's official web portal to all federal, state and local government web resources and services.